GFSNW_850_rhum_177.txt.gz
RH
93 55 15 12 42 43 45 60 83 85 81 77 88 87 70 49 50 55 57 58 61 61 53 54 51 53 45 50 54 64 54 63 91 87 70 83 84 76 70 73 72 71 57 52
100 94 29 16 50 45 48 63 76 90 75 87 90 69 54 54 53 55 59 59 62 54 52 54 52 49 44 52 57 60 50 52 88 72 71 71 84 80 69 50 50 54 47 39
100 100 74 22 68 52 51 54 83 89 92 83 66 54 52 50 51 46 51 51 47 48 50 52 54 46 44 47 50 50 47 50 52 59 45 68 85 63 70 62 61 50 41 40
99 100 99 29 83 77 59 60 68 70 92 90 71 54 47 45 39 54 48 48 53 48 50 46 52 46 51 43 46 56 49 54 50 45 43 45 48 49 59 69 67 44 36 47
100 99 100 82 94 97 65 72 62 56 59 50 69 56 48 48 41 42 47 57 48 58 57 46 38 54 54 51 55 45 50 50 45 38 32 38 44 44 52 45 39 41 45 37
87 100 100 96 90 100 79 57 59 54 53 59 57 57 47 51 44 43 43 52 53 59 61 48 48 52 57 56 62 61 52 51 58 34 47 41 33 40 43 39 39 38 37 32
87 100 100 100 78 100 75 63 54 54 62 64 57 48 52 54 53 40 51 54 54 48 52 52 53 55 57 64 62 64 55 57 70 70 44 40 29 31 34 34 36 34 32 44
87 90 100 100 71 100 96 62 56 56 66 56 52 49 52 51 51 54 51 52 47 50 50 56 51 53 44 49 57 72 67 60 56 62 50 35 35 30 36 29 28 35 38 49
91 91 99 100 71 100 100 66 62 56 51 50 39 51 51 59 60 60 59 57 54 53 63 57 40 35 40 39 41 63 61 59 53 51 29 25 29 32 29 30 35 37 41 49
92 95 95 98 66 99 100 69 58 63 54 33 44 53 56 45 57 58 65 62 62 55 65 55 53 48 47 40 39 46 58 63 46 61 40 30 29 32 33 23 30 35 36 40
94 90 97 98 70 100 100 75 54 55 46 44 46 47 46 52 50 53 60 59 61 69 57 56 56 66 57 55 41 47 42 45 47 60 41 30 34 35 25 28 32 29 32 34
75 80 97 90 84 100 100 84 66 56 55 54 52 51 48 45 43 43 58 42 55 50 66 73 77 67 73 54 34 46 44 44 44 40 36 32 34 30 31 31 28 29 28 29
67 79 100 74 99 100 100 86 73 65 61 64 63 62 55 49 46 49 51 57 52 54 53 63 69 55 63 52 54 46 40 52 55 40 32 41 37 36 31 29 29 29 29 28
97 97 86 90 99 99 99 95 78 67 64 73 78 74 67 59 53 49 50 50 53 55 58 61 69 57 55 55 49 52 43 53 50 51 39 35 32 33 33 36 34 34 32 33
70 88 96 87 98 100 100 96 87 76 75 82 84 81 77 71 66 64 60 56 57 58 66 76 71 70 69 83 78 77 55 49 46 44 36 34 32 35 35 35 36 36 36 36
86 99 92 99 100 100 100 97 96 89 79 74 96 96 91 82 75 68 68 68 66 62 58 67 69 74 69 78 70 50 51 48 44 41 44 45 43 43 43 40 37 36 37 37
89 93 98 95 100 95 96 79 76 85 84 74 99 99 98 93 86 83 79 76 74 70 66 78 80 84 80 84 74 62 65 60 54 57 54 49 47 47 47 47 45 43 41 42
100 98 100 100 100 100 91 84 88 89 81 76 100 100 96 96 91 89 89 87 83 82 82 89 89 89 89 91 79 69 63 57 53 54 55 56 55 52 51 50 49 50 49 52
100 100 100 100 99 99 100 99 98 93 78 97 99 97 98 99 96 92 92 89 93 93 94 93 89 95 97 84 75 65 63 67 61 51 48 50 54 57 58 57 56 56 57 58
100 100 98 99 99 100 98 100 99 96 99 99 99 93 99 93 97 98 96 97 95 98 92 96 99 94 85 77 68 64 66 67 70 69 55 55 55 61 65 64 62 62 62 61
98 98 99 100 100 99 98 100 99 100 100 100 99 94 98 94 96 94 90 98 98 100 96 97 97 94 82 72 67 70 68 75 78 75 72 67 68 69 70 68 67 66 66 65
99 99 99 100 99 99 98 99 100 97 95 100 99 98 88 92 89 96 99 98 98 98 93 98 95 82 76 69 70 70 65 71 76 75 74 72 70 68 65 64 67 68 64 58
97 99 97 98 99 97 95 97 100 99 99 100 100 99 99 100 100 99 99 98 96 94 96 94 88 76 74 67 68 70 68 63 62 66 69 68 68 66 64 62 62 60 58 60
95 97 95 97 96 97 98 99 99 100 99 100 100 99 99 100 99 99 98 97 95 96 97 94 94 86 74 66 64 61 63 63 61 60 60 60 60 60 60 58 58 59 58 57
79 74 96 96 98 95 93 96 96 99 99 99 99 99 99 99 98 99 97 96 97 95 95 98 85 73 65 61 59 57 55 55 57 58 58 58 56 56 58 59 58 56 52 46
72 89 94 97 90 86 73 72 78 86 97 98 99 99 98 98 98 97 96 95 96 97 97 78 64 55 54 52 50 51 54 54 54 53 54 57 55 53 53 52 47 43 41 37
54 92 97 98 88 89 82 67 41 59 72 97 97 96 96 97 96 96 96 96 94 75 76 71 65 61 58 54 51 52 52 52 53 56 57 58 57 53 48 44 44 42 37 30

GFSNW_850_rhum_180.txt.gz
RH
95 98 100 97 34 33 56 66 66 81 83 69 71 70 63 50 48 58 52 51 46 48 47 45 43 43 38 44 48 55 46 48 62 64 63 65 74 73 59 59 60 69 82 64
95 95 100 100 91 41 69 83 86 94 86 67 65 62 58 51 52 48 53 54 52 49 46 45 42 42 42 51 50 49 41 44 55 60 62 65 78 70 62 46 40 48 60 32
74 97 99 100 100 62 79 67 76 99 100 92 64 57 50 50 52 46 52 45 47 48 46 42 44 42 42 48 50 52 46 45 44 44 37 58 74 68 63 59 59 48 44 30
60 87 96 99 99 92 98 72 56 70 86 82 68 54 49 48 42 55 51 45 45 42 41 40 44 42 38 44 46 55 47 52 46 38 35 36 44 55 68 70 58 45 33 36
59 91 94 99 100 100 98 85 68 68 62 62 70 64 52 48 41 44 45 50 42 45 44 32 33 40 42 40 46 40 43 49 42 50 35 35 38 36 40 48 45 50 48 47
45 45 87 90 100 100 99 98 74 66 50 51 54 53 49 42 41 39 39 42 43 50 44 43 44 45 50 50 51 49 45 45 43 38 39 39 34 28 37 35 32 29 33 26
47 43 54 91 99 100 92 84 74 64 56 48 45 43 46 44 48 38 50 52 44 43 49 52 56 56 55 54 52 54 49 45 51 57 39 42 32 28 32 32 32 28 28 31
78 47 47 83 93 100 100 89 88 73 53 46 42 46 46 49 50 51 50 52 48 46 48 43 41 43 44 45 51 53 54 46 48 54 37 28 32 26 31 28 28 26 28 32
82 80 52 41 63 98 100 98 70 78 68 46 37 42 47 44 48 53 59 57 57 51 44 42 37 27 34 34 41 54 53 50 47 39 36 29 30 29 28 29 23 29 30 35
89 84 65 42 38 74 99 100 81 100 78 56 44 43 49 46 47 46 64 67 65 54 46 41 38 34 42 35 33 47 48 45 42 35 37 25 25 29 35 25 27 35 33 37
98 89 84 93 54 76 95 100 91 98 82 58 42 41 44 51 51 46 62 57 62 59 48 40 38 44 38 44 35 38 33 34 32 41 36 37 32 34 26 26 34 36 37 40
72 80 85 66 36 69 83 100 91 100 79 57 48 49 47 42 39 40 58 47 57 50 45 51 51 50 52 37 25 40 37 33 34 32 28 33 36 33 32 33 33 30 31 31
99 100 98 74 42 65 85 100 97 100 98 75 74 64 54 50 47 42 53 54 49 48 45 53 54 44 43 36 35 38 37 45 41 38 32 36 39 36 32 31 31 32 30 28
94 100 100 74 66 94 94 100 97 96 92 81 82 71 69 57 51 48 51 46 50 52 54 61 54 46 51 41 42 40 38 46 40 38 35 35 36 35 34 35 36 34 33 32
80 100 100 84 94 96 96 100 98 92 81 88 97 88 80 71 59 50 53 53 52 54 64 70 58 61 52 64 62 51 44 36 35 32 35 33 34 38 39 38 37 36 37 36
96 89 96 75 75 82 100 100 100 94 88 75 98 98 92 81 71 67 68 63 60 59 57 65 70 71 64 61 52 46 57 52 46 40 46 46 45 46 46 44 43 40 39 40
98 92 90 87 99 100 98 98 90 96 100 84 99 99 100 91 81 76 78 73 70 66 66 77 76 84 78 69 57 59 68 64 59 59 57 53 49 50 48 48 47 46 45 43
98 99 96 99 100 100 99 95 100 98 90 88 100 100 98 95 93 94 88 85 78 78 83 88 81 88 84 77 71 70 63 59 60 63 59 57 52 50 51 51 50 50 49 48
100 98 100 100 100 100 92 100 100 98 86 99 100 98 98 97 97 94 93 86 86 92 84 84 83 83 88 73 72 66 60 64 67 59 57 54 56 59 59 57 56 56 56 56
100 100 98 100 100 99 100 99 96 90 94 94 100 93 97 93 98 97 93 94 87 96 86 97 91 83 85 79 71 63 60 61 63 65 57 58 60 62 67 65 62 61 61 60
99 99 99 100 100 100 99 99 100 100 100 99 100 94 94 94 90 89 90 95 91 98 88 89 89 84 78 76 68 67 68 69 76 77 78 75 71 71 70 70 68 65 64 65
99 100 99 99 95 98 97 100 100 98 97 98 98 97 91 92 83 91 99 96 95 96 92 95 89 77 79 70 71 71 67 72 79 78 77 75 73 69 66 66 69 69 68 65
98 98 97 98 97 95 92 96 97 98 98 100 100 99 97 93 99 99 100 99 96 90 94 88 77 82 73 69 71 71 67 64 65 68 70 69 68 66 65 65 64 61 58 58
93 97 95 94 95 95 93 93 94 99 100 100 99 99 98 100 99 98 94 94 86 95 94 88 84 87 72 69 66 65 64 63 62 62 64 64 63 61 59 58 58 58 58 58
92 88 94 95 98 98 99 98 97 100 100 99 99 99 97 99 98 97 93 96 93 87 87 92 92 74 67 65 63 63 61 58 56 58 59 58 57 58 58 58 58 57 56 54
78 94 96 98 87 92 81 92 98 98 98 99 98 97 97 96 96 95 95 92 91 92 91 89 71 63 55 50 46 42 43 48 51 54 54 55 56 55 54 53 51 48 45 42
68 96 97 97 86 88 77 78 70 97 97 95 95 92 94 95 95 94 94 92 93 96 84 66 64 53 48 46 46 46 45 48 51 54 54 56 57 57 52 48 46 45 42 37

GFSNW_850_rhum_183.txt.gz
RH
93 98 100 94 99 90 27 94 62 78 80 70 53 58 47 49 40 46 43 46 41 37 34 36 32 34 32 34 38 47 44 46 55 41 48 50 57 64 62 96 70 55 67 49
53 84 93 98 100 98 68 75 61 83 84 68 58 46 54 50 42 40 43 44 42 38 41 40 30 32 34 39 39 39 37 44 53 41 59 57 66 53 60 75 52 61 58 50
46 62 93 99 100 99 88 75 60 95 100 76 65 45 45 44 50 42 42 38 38 40 39 34 35 34 34 43 43 48 43 40 44 44 36 34 46 60 60 62 82 64 60 44
59 52 83 98 99 100 99 74 43 50 83 81 67 50 42 42 41 48 44 39 40 36 35 31 32 31 31 36 44 44 44 47 42 39 37 34 38 37 52 72 60 52 35 36
76 53 70 92 100 100 100 69 56 59 52 48 53 58 49 48 40 35 41 43 30 34 37 28 26 29 30 32 38 36 37 43 36 46 27 32 40 33 33 44 53 53 48 46
81 69 52 55 99 100 99 98 82 80 46 40 45 44 48 40 36 32 30 36 34 38 34 31 32 33 33 35 40 40 41 41 38 40 31 36 35 26 27 33 32 33 34 28
72 67 72 50 56 100 100 100 93 70 54 41 39 36 35 39 38 33 40 41 36 42 38 46 48 44 42 41 42 42 43 42 43 56 38 44 32 25 31 31 28 26 25 27
86 75 54 53 48 62 100 100 99 87 74 40 32 38 40 38 37 43 39 46 46 44 47 41 36 39 43 40 40 42 43 44 47 54 34 21 28 25 28 27 25 23 24 26
91 91 82 66 61 52 69 93 100 98 90 73 36 37 38 42 40 38 49 55 52 46 41 38 32 25 27 32 46 46 46 46 50 35 38 26 29 25 25 25 25 23 24 27
66 80 90 86 70 67 87 86 82 100 96 90 46 43 42 37 33 33 51 65 64 56 45 47 31 26 33 33 30 55 52 47 49 39 37 23 24 26 30 30 32 27 25 29
94 98 96 93 85 81 86 96 77 96 98 94 63 55 54 45 41 36 53 54 61 58 51 39 37 34 31 34 26 30 32 34 35 33 38 43 28 31 30 28 32 32 29 32
98 98 97 96 98 97 94 100 98 88 100 99 90 68 62 52 45 44 56 44 47 43 40 44 40 46 38 28 27 30 34 29 30 29 29 33 35 31 34 36 34 35 33 38
98 98 100 98 99 100 100 100 99 100 100 100 99 80 68 66 51 46 48 53 48 49 42 45 48 46 39 35 32 28 29 35 34 34 32 32 34 37 34 34 36 34 31 37
98 100 93 67 80 96 100 99 99 99 87 97 96 84 76 62 54 49 49 49 44 47 48 54 51 46 44 37 38 34 36 38 34 33 31 32 37 38 36 36 36 35 34 33
93 100 71 43 77 97 100 100 99 98 91 97 88 90 81 64 60 55 54 50 50 60 62 66 55 54 44 48 50 42 37 31 34 33 32 32 35 40 38 39 40 38 38 37
97 99 89 84 83 100 100 99 99 98 95 96 99 90 87 77 70 67 61 60 54 61 54 61 65 64 61 57 50 43 47 50 48 40 52 50 51 49 46 46 44 40 38 39
100 100 97 98 100 100 96 75 88 97 90 96 100 100 100 95 94 86 76 68 63 69 72 68 63 74 70 63 56 56 62 63 62 60 54 52 52 54 53 50 49 48 46 43
100 100 92 91 93 87 96 84 73 83 100 100 100 99 99 100 100 98 87 90 80 80 79 81 69 82 72 73 60 65 63 60 65 68 59 57 53 51 55 53 52 52 53 50
100 100 99 98 99 97 99 89 96 100 97 100 100 98 99 100 100 100 100 98 91 90 78 73 76 76 84 65 65 64 64 63 65 62 59 59 60 62 59 58 59 59 59 57
100 100 98 100 100 98 97 94 99 100 100 99 100 100 99 99 100 99 95 85 86 98 83 91 86 77 78 75 70 65 63 63 63 68 74 70 69 66 62 65 63 62 62 61
100 99 99 100 100 100 100 100 100 100 100 100 100 95 95 99 98 91 89 94 88 99 90 86 88 81 77 81 70 65 63 62 68 74 79 79 75 74 72 71 68 64 63 63
98 98 100 100 99 100 100 99 100 100 99 100 99 98 97 97 88 94 96 96 91 96 87 88 87 78 84 73 71 71 68 70 77 76 76 76 74 70 69 70 71 70 68 67
98 98 98 98 98 96 93 94 98 98 100 99 98 98 97 99 99 98 95 92 95 83 91 87 78 80 79 74 75 71 67 67 67 71 70 69 67 66 65 67 67 65 62 60
96 98 93 94 91 88 89 90 95 99 99 100 100 99 100 100 94 95 91 95 82 92 92 84 79 77 80 71 71 68 66 65 64 63 64 63 62 60 59 58 57 58 58 58
97 93 94 91 92 95 99 98 97 100 100 99 93 98 88 99 97 86 85 92 89 81 85 90 88 81 71 68 65 62 60 58 57 58 57 57 57 57 57 57 56 56 56 55
95 94 94 98 90 94 95 98 98 98 99 99 93 98 92 94 89 87 87 83 83 89 91 89 75 66 66 65 61 58 54 51 51 52 52 53 53 53 52 53 53 52 51 50
97 95 99 98 96 88 90 90 98 98 99 94 89 90 94 94 90 88 89 92 92 95 93 86 78 68 62 58 54 49 46 43 42 42 44 48 53 55 54 51 49 47 46 43

GFSNW_850_rhum_189.txt.gz
RH
85 64 50 97 98 100 97 82 80 78 79 78 85 89 63 50 45 41 43 45 50 50 44 45 44 44 35 35 44 53 52 66 83 61 52 57 63 81 75 96 90 96 98 85
82 81 70 52 93 94 100 91 72 79 79 95 94 74 64 53 52 50 50 53 51 43 46 49 43 39 39 38 42 46 46 65 85 58 62 59 70 66 68 78 94 89 96 77
84 87 80 65 76 94 99 83 84 99 97 97 92 87 76 63 51 50 47 48 42 44 51 49 51 39 39 38 42 47 44 59 57 63 42 49 52 60 66 73 97 82 91 74
71 84 87 77 65 95 100 94 86 66 96 95 87 79 79 75 71 53 46 50 52 50 53 42 47 45 36 46 48 47 54 76 66 61 54 52 53 51 52 78 77 84 64 75
77 62 81 90 81 75 99 94 94 79 74 57 90 91 88 77 71 67 57 58 48 50 58 42 42 41 38 38 49 52 59 71 59 64 47 49 53 48 46 50 63 78 75 75
86 72 82 87 92 76 83 89 98 100 91 72 62 61 56 66 61 54 49 52 51 52 50 41 39 40 40 38 48 57 56 66 69 75 58 62 48 34 35 38 39 49 60 51
74 81 71 87 89 86 83 71 96 99 97 87 81 70 65 64 55 57 46 42 40 38 37 38 34 39 48 49 50 44 58 62 69 82 67 52 36 26 30 38 38 30 35 44
80 90 88 68 75 80 87 77 88 94 96 85 87 70 73 66 61 54 47 38 40 40 41 52 56 50 51 49 51 53 54 61 76 79 77 49 34 27 31 33 34 26 41 44
86 85 94 90 85 84 90 92 92 100 92 74 78 80 91 87 70 64 54 40 43 47 53 59 58 44 43 49 58 53 57 58 70 74 64 48 32 28 26 29 45 29 38 46
86 97 94 83 73 75 93 97 89 100 96 87 74 73 95 92 76 74 60 58 59 53 71 75 73 56 32 47 63 75 73 71 80 79 74 57 29 29 31 39 41 32 33 39
94 87 72 63 56 53 98 95 94 100 100 96 88 71 75 52 58 93 64 64 67 74 79 79 69 66 47 40 44 66 69 76 73 70 69 55 31 32 33 37 35 34 32 34
86 88 84 72 68 49 86 99 73 90 100 96 99 96 83 65 80 96 90 81 81 62 70 77 72 61 58 47 44 36 49 45 49 43 45 38 32 33 35 37 36 36 34 34
45 55 79 90 91 90 90 99 97 96 100 99 100 96 86 75 70 66 87 89 76 57 48 61 66 66 60 52 51 36 33 38 39 36 38 37 36 34 34 34 34 36 36 37
84 88 91 89 89 91 88 97 91 96 99 98 83 79 93 77 61 66 92 89 78 83 63 56 74 65 48 57 50 44 41 41 41 41 37 39 38 39 37 36 37 36 34 35
90 93 93 92 91 90 83 87 96 100 100 97 95 89 76 68 65 59 52 87 84 87 88 81 84 67 56 57 63 63 42 40 46 45 37 36 42 41 42 40 39 38 38 36
90 98 98 97 97 82 94 99 93 81 100 99 96 92 94 74 67 56 74 73 83 90 90 80 63 53 54 78 70 45 38 38 37 42 40 39 41 45 46 43 43 42 39 39
91 87 84 82 42 87 100 96 89 95 99 98 98 99 97 77 74 87 91 93 87 72 89 85 75 69 64 86 73 50 48 45 45 44 46 53 52 50 50 49 46 46 46 43
86 73 33 33 68 100 98 89 96 100 100 100 99 99 99 100 99 95 93 96 99 98 87 84 70 80 83 94 68 51 54 53 53 50 47 50 50 51 50 50 49 48 48 49
78 30 48 83 100 99 98 100 98 99 100 99 99 90 94 100 99 98 99 89 94 99 98 87 74 83 88 71 66 62 58 56 57 60 57 55 54 55 54 52 54 53 53 52
55 51 99 100 100 97 95 100 100 100 100 99 98 79 98 98 98 99 99 100 98 98 98 96 99 98 75 69 66 62 60 64 67 65 69 65 62 61 60 57 58 59 56 57
66 83 98 97 100 100 100 100 99 100 99 99 97 87 98 100 97 97 99 99 99 98 98 97 98 98 88 71 66 64 62 62 62 65 64 64 63 62 63 65 65 65 62 61
98 88 98 96 99 100 99 92 98 98 93 99 97 99 92 99 99 99 99 99 99 98 97 98 98 98 84 80 84 78 67 68 69 70 69 70 71 69 70 74 70 68 65 63
62 98 98 98 98 98 97 97 98 98 99 99 100 98 98 100 100 100 99 99 98 97 98 98 99 94 90 85 78 78 72 80 80 80 80 74 72 74 76 77 75 72 70 68
97 98 96 97 95 96 97 97 97 96 98 100 98 100 98 100 99 100 98 98 99 98 97 96 97 99 97 96 88 76 76 80 81 76 71 71 72 72 72 70 68 66 63 61
97 98 96 96 97 96 96 97 98 97 98 99 99 100 100 99 98 98 98 97 97 97 97 97 98 97 96 89 84 78 72 74 73 70 67 66 65 64 62 62 62 61 59 58
97 92 96 89 95 95 96 96 96 98 98 99 100 99 98 97 98 96 96 96 96 97 97 99 98 96 89 79 72 69 67 64 64 63 61 60 59 57 57 58 57 56 56 55
96 96 96 97 96 97 96 97 97 97 98 97 97 94 96 93 93 95 97 97 96 96 100 92 82 79 77 71 67 63 59 55 54 55 56 55 55 53 52 49 50 49 48 46

GFSNW_850_rhum_192.txt.gz
RH
75 72 61 54 87 98 96 99 89 76 88 76 87 90 72 54 49 42 42 47 50 51 48 50 46 46 36 36 47 54 53 69 91 74 53 61 74 80 84 96 83 98 94 85
87 82 77 61 75 95 91 95 81 77 82 84 94 80 72 60 56 51 49 52 54 48 50 53 48 43 36 39 47 49 49 66 85 52 53 59 70 70 73 80 83 88 94 76
81 82 81 80 61 84 95 79 89 98 99 99 88 88 81 72 47 57 50 52 49 48 54 54 55 45 38 40 43 45 44 62 60 58 42 45 51 54 64 76 92 74 78 75
77 63 70 82 81 64 97 89 85 75 95 97 92 83 80 78 68 58 49 51 52 51 55 50 55 48 42 40 47 52 54 72 72 66 59 57 60 61 59 74 68 82 63 79
88 84 66 75 91 81 83 98 80 83 86 65 92 92 88 83 72 66 69 59 54 50 62 50 52 49 48 47 52 54 62 68 66 71 54 53 58 57 58 58 58 75 70 75
88 84 74 79 92 94 74 83 99 99 92 87 75 75 82 69 66 60 58 58 64 59 53 42 40 41 43 44 49 58 58 73 72 78 62 65 47 34 33 37 43 53 64 54
60 82 78 82 82 97 90 75 76 91 86 84 81 73 70 71 67 74 61 59 56 46 43 40 41 42 49 56 58 46 61 65 72 84 70 49 30 27 29 41 42 40 37 46
87 82 82 91 74 81 90 86 89 93 95 82 87 77 83 86 84 80 73 66 55 46 46 57 61 51 50 51 58 64 56 63 71 84 83 52 34 30 33 35 34 28 41 45
80 82 83 85 90 90 92 99 98 99 99 78 64 64 65 75 80 74 68 61 60 57 56 62 71 64 39 43 60 63 63 61 68 81 77 53 29 29 27 30 46 31 41 49
84 81 81 90 95 96 96 93 98 100 98 86 73 78 72 72 74 82 75 77 62 57 73 75 75 77 44 51 63 81 79 79 82 84 87 62 41 30 31 40 35 33 36 41
96 96 95 91 84 91 92 86 88 99 99 94 89 92 87 74 66 80 86 84 72 78 82 80 74 81 55 46 48 73 76 86 92 82 83 68 30 36 38 33 35 33 34 36
84 84 83 84 80 86 92 94 73 90 100 97 85 87 92 84 70 68 73 65 87 79 79 82 81 73 69 54 48 54 53 51 66 58 54 37 31 31 31 36 35 34 32 33
40 44 48 52 43 55 98 99 91 94 100 96 99 96 87 74 87 61 84 75 77 89 87 75 78 75 67 61 57 43 39 41 46 40 35 39 32 32 27 31 32 35 33 31
72 88 91 91 92 87 96 100 87 95 99 97 76 68 77 67 72 76 73 84 73 76 85 98 98 77 54 64 54 50 40 41 42 46 38 38 36 34 34 34 36 36 36 34
90 91 90 92 94 96 95 97 92 87 98 86 86 92 91 90 80 78 76 87 90 82 81 90 98 82 69 66 70 62 44 42 47 44 36 34 35 35 36 35 36 37 35 36
89 91 89 86 85 75 99 98 78 26 19 99 92 75 88 92 80 94 96 96 95 96 85 86 89 80 67 77 78 47 39 36 31 36 36 36 37 40 40 38 38 39 40 39
82 66 62 64 51 84 100 89 60 73 93 98 98 96 96 78 78 88 98 94 95 91 86 83 75 74 83 79 87 52 45 44 43 42 44 48 45 44 45 43 43 44 42 41
80 82 75 44 35 70 92 42 79 74 73 99 98 94 96 92 99 98 92 87 94 97 93 75 82 97 90 97 72 58 53 45 46 45 49 48 44 49 51 49 47 45 46 46
89 81 52 31 53 94 90 90 94 93 100 99 99 82 84 99 100 96 99 90 99 92 91 77 71 77 94 72 66 51 45 45 45 50 53 52 50 52 52 51 51 50 52 51
85 70 73 90 100 98 99 99 99 99 99 99 99 86 98 98 100 99 100 100 98 98 95 80 98 77 56 60 56 48 43 45 53 62 68 62 58 57 57 56 56 54 57 58
93 80 68 43 54 83 99 100 99 99 99 99 99 97 98 99 97 98 98 99 99 98 88 96 95 95 64 67 60 58 56 58 60 60 58 59 58 59 61 63 60 58 59 60
98 98 98 100 98 98 99 93 95 99 95 100 98 97 84 100 98 98 99 99 99 96 98 97 98 56 71 69 62 62 62 62 63 63 61 64 63 65 66 66 65 65 64 63
68 96 98 98 96 97 98 95 96 98 99 100 100 99 99 100 100 100 99 98 96 99 98 97 97 95 96 81 73 71 70 69 65 67 60 67 68 72 73 71 72 70 67 66
99 98 96 97 96 96 96 97 97 87 93 98 100 99 99 100 99 99 98 96 99 99 99 95 97 100 100 94 86 81 87 84 83 74 74 75 78 80 80 78 75 73 71 69
98 97 96 96 96 95 94 96 98 97 97 98 99 99 99 99 99 98 97 97 96 96 96 97 97 98 98 96 98 98 99 98 95 74 71 73 73 72 70 68 65 64 62 60
98 96 96 84 94 90 93 96 96 97 96 98 99 99 98 98 98 96 96 96 95 96 97 98 97 97 97 97 97 97 97 93 73 68 65 64 64 63 62 61 59 58 57 57
96 96 96 98 96 96 96 97 96 97 98 97 98 97 96 96 96 95 96 96 96 96 97 97 96 96 97 96 96 88 71 66 64 62 62 60 59 57 55 52 52 51 50 50